Flag for U.S.A. Weather past 2 weeks in Prudhoe Bay, Alaska, U.S.A.

Now
16 °F

Overcast.


Feels Like: 6 °F
Forecast: 20 / 27 °F
Wind: 7 mph from Southwest

Location: Deadhorse Airport

Current Time: Apr 27, 2015 at 10:00:32 PM

Latest Report: Apr 27, 2015 at 8:53 PM


Visibility: 10 mi

Pressure: 29.96 "Hg

Humidity: 80%

Dew point: 11 °F

Location of Prudhoe BayLocation

Historic Weather in Prudhoe Bay — Graph

°F

Prudhoe Bay temperature yesterday

Maximum temperature yesterday: 16 °F (at 12:53 AM)
Minimum temperature yesterday: -1 °F (at 11:53 PM)
Average temperature yesterday: 10 °F

Past Weeks' High & Low Weather Summary

 TemperatureHumidityPressure
High33 °F (Apr 20, 4:53 PM)95% (Apr 25, 7:53 AM)30.15 "Hg (Apr 25, 7:53 AM)
Low-5 °F (Apr 15, 1:53 AM)63% (Apr 23, 7:53 AM)29.48 "Hg (Apr 19, 6:53 PM)
Average13 °F81%29.87 "Hg
* Reported Apr 12 8:53 PM — Apr 27 8:53 PM, Prudhoe Bay, Weather by CustomWeather, © 2015

Note: Actual official high and low records may vary slightly from our data, if they occured in-between our weather recording intervals... More about our weather records

Advertising

Prudhoe Bay weather history for previous 24 hours

 ConditionsComfort  
Time TempWeatherWind HumidityBarometerVisibility
8:53 PM
Mon, Apr 27
16 °FOvercast.7 mph80%29.96 "Hg10 mi
7:53 PM14 °FOvercast.6 mph80%29.97 "Hg10 mi
6:53 PM16 °FPartly sunny.5 mph80%29.96 "Hg10 mi
5:53 PM16 °FLight snow. Ice fog.5 mph84%29.97 "Hg6 mi
4:53 PM15 °FLight snow. Ice fog.5 mph83%29.97 "Hg3 mi
3:53 PM14 °FLight snow. Ice fog.5 mph84%29.98 "Hg1 mi
2:53 PM12 °FLight snow. Ice fog.5 mph84%29.98 "Hg1 mi
1:53 PM10 °FLight snow. Ice fog.6 mph84%29.98 "Hg5 mi
12:53 PM10 °FLight snow. Ice fog.10 mph80%29.98 "Hg5 mi
11:53 AM9 °FLight snow. Ice fog.9 mph84%29.98 "Hg2 mi
11:00 AM7 °FLight snow. Ice fog.9 mph83%29.98 "Hg2 mi
9:53 AM5 °FLight snow. Ice fog.9 mph80%29.98 "Hg5 mi
9:00 AM4 °FLight snow. Ice fog.7 mph84%29.98 "Hg5 mi
7:53 AM1 °FLight snow. Ice fog.8 mph87%29.99 "Hg1 mi
6:53 AM0 °FLight snow. Ice fog.7 mph87%29.98 "Hg1 mi
5:53 AM-1 °FLight snow. Low clouds.5 mph82%29.99 "Hg9 mi
5:04 AM-1 °FLight snow. Ice fog.7 mph79%29.98 "Hg1 mi
4:53 AM-1 °FLight snow. Ice fog.7 mph79%29.99 "Hg5 mi
3:53 AM-4 °FLow clouds.7 mph83%29.98 "Hg7 mi
2:53 AM-3 °FIce fog.6 mph82%29.98 "Hg1 mi
1:53 AM0 °FIce fog.5 mph83%29.98 "Hg1 mi
12:53 AM-1 °FIce fog.7 mph79%29.98 "Hg2 mi
11:53 PM
Sun, Apr 26
-1 °FIce fog.7 mph79%29.98 "Hg6 mi
10:53 PM1 °FIce fog.6 mph83%29.98 "Hg6 mi
Weather by CustomWeather, © 2015

See weather overviewHow to use our weather pages